ATLAS 5 CENTAUR DEB, 43972

Orbit data source: Space-Track

ATLAS 5 CENTAUR DEB, 43972 is space debris in HEO originally from a launch on Wed, 17 Sep 2014 UTC launched from the Air Force Eastern Test Range (AFETR). Debris objects in space refer to the collection of defunct objects orbiting the Earth. Examples of debris include non-operational satellites, rocket bodies, and fragments generated from explosions, collisions, or faulty payload assembly.

Loading next visibility...
Identifier
43972, 2014-055AB
Orbit
HEO
Country
Flag of USUS
Related business
Flag of USUnited Launch Alliance/Lockheed Martin (US)
Manufacturer
Unknown
Mission
Spacecraft
Bus & Motor
Unknown
Mass
Unknown
Launch date (UTC)
2014-09-17 (12 years ago)
Launch vehicle
Unknown
Launch site
Air Force Eastern Test Range (AFETR)
Object type
Payload
Rocket body
Debris
Shape & HBR
Unknown shape, 1.1 m
Radar Cross Section
Medium (>0.1 m² and <1 m²)

Expand to show TLE details & history
Last TLE update: 1 week ago

TLE from 1 week ago
0 ATLAS 5 CENTAUR DEB
1 43972U 14055AB  26228.15717784 -.00000114  00000-0  00000-0 0  9997
2 43972  20.1882 138.0537 4746550 174.0148 194.7147  1.85390104 53834
Epoch: 2026-08-16T03:46Z
TLE epoch observation values (Epoch: 2026-08-16T03:46:20.165Z)
Latitude
0.00003°
Longitude
116.9072°
Altitude
34,718.07 km
Speed
2.271 km/s
True Right ascension
09h 12m 11s
True Declination
0° 00' 00"
Sunlit
Object was in daylight at epoch
Visualization orbit readout
Latitude
Unknown
Longitude
Unknown
Altitude
Unknown
Speed
Unknown
Apparent Right ascension
Unknown
Apparent Declination
Unknown
Sunlit
N/A
Visualization observer readout
Local Sidereal Time
01:50:27
Azimuth
Unknown
Elevation
Unknown
Doppler factor
Unknown
Orbital elements
Apogee altitude
34,901.029 km
Perigee altitude
8,327.542 km
Semi-major axis
27,992.422 km
Eccentricity
0.47466
Inclination
20.1882°
RAAN
138.0537°
Arg. of periapsis
174.0148°
True anomaly
185.97525°
Mean anomaly
194.7147°
Eccentric anomaly
189.99469°
Mean motion
0.46343 °/min
Orbital period
776.82 mins
BSTAR
0
Loading maneuver chart data...
Computing Atmospheric mass density...

Documentation

Showing up to 5 results
|